Flag for U.S.A. Weather past 2 weeks in Bridgewater, Massachusetts, U.S.A.

Now
13 °F

Clear.


Feels Like: 4 °F
Forecast: 9 / 28 °F
Wind: 6 mph from West

Location: Taunton Municipal Airport

Current Time: Feb 1, 2015 at 5:38:34 AM

Latest Report: Feb 1, 2015 at 4:52 AM


Visibility: 10 mi

Pressure: 30.12 "Hg

Humidity: 56%

Dew point: 0 °F

Location of BridgewaterLocation

Historic Weather in Bridgewater — Graph

°F

Bridgewater temperature yesterday

Maximum temperature yesterday: 24 °F (at 2:52 PM)
Minimum temperature yesterday: 13 °F (at 5:52 AM)
Average temperature yesterday: 18 °F

Past Weeks' High & Low Weather Summary

 TemperatureHumidityPressure
High55 °F (Jan 18, 12:52 PM)97% (Jan 30, 10:58 AM)30.37 "Hg (Jan 30, 10:58 AM)
Low-9 °F (Jan 29, 6:52 AM)23% (Jan 17, 2:52 PM)29.11 "Hg (Jan 24, 4:52 PM)
Average27 °F67%29.90 "Hg
* Reported Jan 17 3:52 AM — Feb 1 3:52 AM, Bridgewater, Weather by CustomWeather, © 2014

Note: Actual official high and low records may vary slightly from our data, if they occured in-between our weather recording intervals... More about our weather records

Advertising

Bridgewater weather history for previous 24 hours

 ConditionsComfort  
Time TempWeatherWind HumidityBarometerVisibility
3:52 AM
Feb 1
15 °FClear.13 mph49%30.10 "Hg10 mi
2:52 AM14 °FClear.10 mph47%30.08 "Hg10 mi
1:52 AM13 °FClear.8 mph44%30.07 "Hg10 mi
12:52 AM13 °FClear.7 mph42%30.06 "Hg10 mi
11:52 PM
Jan 31
13 °FClear.8 mph42%30.04 "Hg10 mi
10:52 PM15 °FClear.10 mph38%30.04 "Hg10 mi
9:52 PM15 °FClear.8 mph42%30.03 "Hg10 mi
8:52 PM17 °FClear.10 mph37%30.01 "Hg10 mi
7:52 PM18 °FClear.14 mph37%29.99 "Hg10 mi
6:52 PM18 °FClear.10 mph35%29.99 "Hg10 mi
5:52 PM19 °FClear.10 mph32%29.96 "Hg10 mi
4:52 PM21 °FSunny.14 mph28%29.92 "Hg10 mi
3:52 PM23 °FSunny.12 mph26%29.88 "Hg10 mi
2:52 PM24 °FSunny.12 mph25%29.85 "Hg10 mi
1:52 PM23 °FSunny.18 mph26%29.84 "Hg10 mi
12:52 PM23 °FPassing clouds.18 mph27%29.83 "Hg10 mi
11:52 AM21 °FPartly sunny.20 mph30%29.83 "Hg10 mi
10:52 AM20 °FSunny.18 mph32%29.83 "Hg10 mi
9:52 AM16 °FPartly sunny.16 mph40%29.82 "Hg10 mi
8:52 AM15 °FLight snow. Overcast.15 mph46%29.80 "Hg9 mi
7:52 AM14 °FLight snow. Mostly cloudy.20 mph56%29.79 "Hg3 mi
6:52 AM13 °FLight snow. Overcast.16 mph74%29.78 "Hg1 mi
5:52 AM13 °FLight snow. Mostly cloudy.15 mph77%29.76 "Hg1 mi
Weather by CustomWeather, © 2014

See weather overviewHow to use our weather pages